This demonstration page uses our WeatherBlox Daily Observations layout. Learn more.

Left ArrowRight Arrow

34.02893, -84.19858

Hourly Observations for April 20, 2019

Temp ( °F °C ) Dew Point ( °F °C ) Humidity (%) Winds ( mph kmh ) Pressure ( in mb ) Visibility ( mi km ) Precip ( " mm )
12:15 am 00:15 Mostly Cloudy 45 7.2 39 3.9 80 80 WSW 7 11 29.69 1005 10 16 0.00 0.00
12:53 am 00:53 Cloudy with Light Rain 45 7.2 39 3.9 80 80 WSW 14 22 29.66 1005 8 13 0.00 0.03
1:10 am 01:10 Cloudy with Light Rain 45 7.2 41 5 86 86 W 8 13 29.69 1005 10 16 0.00 0.03
1:24 am 01:24 Cloudy 45 7.2 41 5 86 86 WSW 8 13 29.69 1005 9 14 0.00 0.03
1:53 am 01:53 Cloudy 44 6.7 42 5.6 93 93 WSW 8 13 29.67 1005 10 16 0.00 0.03
2:19 am 02:19 Cloudy with Light Rain 43 6.1 40 4.4 89 89 W 12 19 29.71 1006 8 13 0.02 0.51
2:53 am 02:53 Cloudy with Light Rain 43 6.1 41 5 93 93 WSW 7 11 29.66 1005 10 16 0.02 0.51
3:03 am 03:03 Cloudy 43 6.1 40 4.4 89 89 WSW 13 20 29.69 1005 10 16 0.00 0.03
3:53 am 03:53 Cloudy 43 6.1 39 3.9 86 86 WSW 10 17 29.66 1004 10 16 0.00 0.03
5:53 am 05:53 Cloudy 43 6.1 39 3.9 86 86 SW 10 17 29.65 1004 N/A 0.00 0.00
6:43 am 06:43 Cloudy with Light Rain 43 6.1 40 4.4 89 89 WSW 9 15 29.68 1005 N/A 0.00 0.03
6:53 am 06:53 Cloudy with Light Rain 43 6.1 40 4.4 89 89 WSW 14 22 29.66 1005 N/A 0.01 0.25
7:07 am 07:07 Cloudy with Light Rain 43 6.1 40 4.4 89 89 WSW 10 17 29.69 1005 N/A 0.00 0.03
7:20 am 07:20 Cloudy with Light Rain 42 5.6 40 4.4 92 92 WSW 9 15 29.70 1006 3 5 0.01 0.25
7:53 am 07:53 Cloudy with Light Rain 42 5.6 40 4.4 92 92 WSW 12 19 29.69 1005 3 5 0.02 0.51
8:00 am 08:00 Cloudy with Light Rain 42 5.6 40 4.4 92 92 WSW 10 17 29.71 1006 3 5 0.00 0.03
8:53 am 08:53 Cloudy 43 6.1 41 5 93 93 SW 7 11 29.71 1006 10 16 0.00 0.03
9:50 am 09:50 Cloudy 45 7 41 5 87 87 SW 10 17 29.74 1007 N/A 0.00 0.03
9:53 am 09:53 Cloudy 44 6.7 41 5 89 89 WSW 10 17 29.73 1007 N/A 0.00 0.03
10:53 am 10:53 Cloudy with Light Rain 45 7.2 42 5.6 90 90 W 9 15 29.75 1008 N/A 0.01 0.25
10:55 am 10:55 Mostly Cloudy with Light Rain 45 7.2 42 5.6 90 90 W 9 15 29.76 1008 10 16 0.00 0.03
11:35 am 11:35 Cloudy 46 7.8 41 5 83 83 W 9 15 29.78 1008 10 16 0.00 0.03
11:53 am 11:53 Cloudy 46 7.8 41 5 83 83 WSW 9 15 29.78 1008 10 16 0.00 0.03
12:00 pm 12:00 Cloudy 47 8.3 41 5 80 80 WSW 12 19 29.78 1008 N/A 0.00 0.00
12:53 pm 12:53 Cloudy with Light Rain 46 7.8 42 5.6 86 86 WNW 10 17 29.79 1009 10 16 0.00 0.03
1:33 pm 13:33 Cloudy 48 8.9 41 5 77 77 W 15 24 29.80 1009 N/A 0.00 0.03
1:53 pm 13:53 Cloudy with Light Rain 48 8.9 42 5.6 80 80 W 9 15 29.80 1009 N/A 0.01 0.25
2:53 pm 14:53 Cloudy with Light Rain 47 8.3 43 6.1 86 86 WSW 14 22 29.81 1010 N/A 0.00 0.03
3:22 pm 15:22 Cloudy 48 8.9 43 6.1 83 83 W 14 22 29.82 1010 10 16 0.01 0.25
3:48 pm 15:48 Cloudy 48 9 43 6 82 82 W 17 28 29.82 1010 N/A 0.01 0.25
3:53 pm 15:53 Cloudy 47 8.3 41 5 80 80 W 15 24 29.83 1010 N/A 0.01 0.25
4:10 pm 16:10 Cloudy 48 8.9 41 5 77 77 W 9 15 29.84 1010 N/A 0.00 0.00
4:18 pm 16:18 Cloudy 47 8.3 41 5 80 80 W 10 17 29.84 1010 10 16 0.00 0.00
4:53 pm 16:53 Cloudy 47 8.3 41 5 80 80 W 12 19 29.86 1011 N/A 0.00 0.00
5:53 pm 17:53 Cloudy 48 8.9 41 5 77 77 W 15 24 29.87 1012 N/A 0.00 0.00
6:12 pm 18:12 Cloudy 48 8.9 42 5.6 80 80 W 10 17 29.89 1012 10 16 0.00 0.00
6:53 pm 18:53 Cloudy 48 8.9 42 5.6 80 80 W 9 15 29.89 1012 10 16 0.00 0.00
7:53 pm 19:53 Cloudy 48 8.9 43 6.1 83 83 W 5 7 29.91 1013 10 16 0.00 0.00
8:53 pm 20:53 Cloudy 47 8.3 43 6.1 86 86 NNW 5 7 29.93 1014 10 16 0.00 0.00
9:53 pm 21:53 Cloudy 47 8.3 43 6.1 86 86 NW 5 7 29.96 1014 10 16 0.00 0.00
10:53 pm 22:53 Cloudy 47 8.3 43 6.1 86 86 NNW 3 6 29.97 1015 N/A 0.00 0.00
11:53 pm 23:53 Cloudy 47 8.3 44 6.7 90 90 Calm 29.98 1015 10 16 0.00 0.00

Powered by AerisWeather